EA4BCR Weather Reports


Display with metric or nautical units.
time (UTC)temp
F
wind
direction
speed
MPH
gust
MPH
rain 1hr
in
rain 24hr
in
rain mn
in
humidity
%
barometer
mb
20260510173059 58 0.0 0.0 0.00 0.00 0.00 98 1013.1
20260510172058 59 0.0 0.0 0.00 0.00 0.00 98 1012.8
20260510171058 58 0.0 0.0 0.00 0.00 0.00 98 1013.1
20260510170059 58 0.0 0.0 0.00 0.00 0.00 89 1013.0
20260510165058 61 0.0 0.0 0.00 0.00 0.00 89 1012.1
20260510164059 61 0.0 0.0 0.00 0.00 0.00 91 1012.0
20260510163058 59 0.0 0.0 0.00 0.00 0.00 10 1012.4
20260510162058 57 0.0 0.0 0.00 0.00 0.00 96 1013.0
20260510161058 58 0.0 0.0 0.00 0.00 0.00 94 1013.1
20260510160058 58 0.0 0.0 0.00 0.00 0.00 10 1013.2
20260510155058 56 0.0 0.0 0.00 0.00 0.00 10 1013.7
20260510154058 56 0.0 0.0 0.00 0.00 0.00 10 1013.6
20260510153058 56 0.0 0.0 0.00 0.00 0.00 99 1013.6
20260510152058 57 0.0 0.0 0.00 0.00 0.00 97 1013.2
20260510151058 57 0.0 0.0 0.00 0.00 0.00 10 1013.3
20260510150058 57 0.0 0.0 0.00 0.00 0.00 10 1013.1
20260510145058 60 0.0 0.0 0.00 0.00 0.00 10 1012.5
20260510144058 59 0.0 0.0 0.00 0.00 0.00 10 1012.6
20260510143059 57 0.0 0.0 0.00 0.00 0.00 10 1013.1
20260510142058 57 0.0 0.0 0.00 0.00 0.00 10 1013.3
20260510141058 57 0.0 0.0 0.00 0.00 0.00 10 1013.4
20260510140058 58 0.0 0.0 0.00 0.00 0.00 10 1012.8
20260510135058 58 0.0 0.0 0.00 0.00 0.00 10 1012.5
20260510134058 58 0.0 0.0 0.00 0.00 0.00 10 1012.4
20260510133059 57 0.0 0.0 0.00 0.00 0.00 10 1012.9
20260510132058 59 0.0 0.0 0.00 0.00 0.00 10 1012.3
20260510131058 59 0.0 0.0 0.00 0.00 0.00 10 1012.4
20260510130059 58 0.0 0.0 0.00 0.00 0.00 10 1012.5
20260510125058 58 0.0 0.0 0.00 0.00 0.00 10 1012.5
20260510124058 58 0.0 0.0 0.00 0.00 0.00 10 1012.5
20260510122058 55 0.0 0.0 0.00 0.00 0.00 10 1013.4
20260510121058 58 0.0 0.0 0.00 0.00 0.00 10 1012.7
20260510120058 59 0.0 0.0 0.00 0.00 0.00 10 1012.3
20260510115058 61 0.0 0.0 0.00 0.00 0.00 83 1011.7
20260510114058 61 0.0 0.0 0.00 0.00 0.00 10 1011.5
20260510113058 60 0.0 0.0 0.00 0.00 0.00 10 1012.3
20260510112058 58 0.0 0.0 0.00 0.00 0.00 10 1012.8
20260510111058 58 0.0 0.0 0.00 0.00 0.00 10 1013.1
20260510110058 60 0.0 0.0 0.00 0.00 0.00 10 1012.7
20260510105058 58 0.0 0.0 0.00 0.00 0.00 10 1013.1
20260510104058 58 0.0 0.0 0.00 0.00 0.00 10 1013.2
20260510103058 58 0.0 0.0 0.00 0.00 0.00 10 1013.2
20260510102058 56 0.0 0.0 0.00 0.00 0.00 10 1013.8
20260510101058 56 0.0 0.0 0.00 0.00 0.00 10 1013.8
20260510100058 55 0.0 0.0 0.00 0.00 0.00 10 1014.2
20260510095058 55 0.0 0.0 0.00 0.00 0.00 10 1014.1
20260510094058 57 0.0 0.0 0.00 0.00 0.00 10 1013.6
20260510091058 56 0.0 0.0 0.00 0.00 0.00 10 1013.9
20260510090058 56 0.0 0.0 0.00 0.00 0.00 10 1013.9
20260510085058 54 0.0 0.0 0.00 0.00 0.00 10 1014.3
20260510084058 54 0.0 0.0 0.00 0.00 0.00 10 1014.4
20260510083058 55 0.0 0.0 0.00 0.00 0.00 10 1014.1
20260510082058 55 0.0 0.0 0.00 0.00 0.00 10 1014.1
20260510081058 53 0.0 0.0 0.00 0.00 0.00 10 1014.7
20260510080058 55 0.0 0.0 0.00 0.00 0.00 10 1014.3
20260510075058 54 0.0 0.0 0.00 0.00 0.00 10 1014.5
20260510074058 54 0.0 0.0 0.00 0.00 0.00 10 1014.4
20260510072058 53 0.0 0.0 0.00 0.00 0.00 10 1014.5
20260510071058 54 0.0 0.0 0.00 0.00 0.00 10 1014.3
20260510070058 53 0.0 0.0 0.00 0.00 0.00 10 1014.3
20260510065058 53 0.0 0.0 0.00 0.00 0.00 10 1014.4
20260510064058 52 0.0 0.0 0.00 0.00 0.00 10 1014.5
20260510063058 52 0.0 0.0 0.00 0.00 0.00 10 1014.5
20260510061058 52 0.0 0.0 0.00 0.00 0.00 10 1014.3
20260510054058 51 0.0 0.0 0.00 0.00 0.00 10 1014.5
20260510052058 52 0.0 0.0 0.00 0.00 0.00 10 1014.1
20260510050058 51 0.0 0.0 0.00 0.00 0.00 10 1014.5
20260510045058 52 0.0 0.0 0.00 0.00 0.00 10 1014.0
20260510044058 52 0.0 0.0 0.00 0.00 0.00 10 1013.9
20260510043058 52 0.0 0.0 0.00 0.00 0.00 10 1014.0
20260510042058 52 0.0 0.0 0.00 0.00 0.00 10 1014.0
20260510041058 52 0.0 0.0 0.00 0.00 0.00 10 1014.1
20260510040058 52 0.0 0.0 0.00 0.00 0.00 10 1014.2
20260510035058 53 0.0 0.0 0.00 0.00 0.00 10 1014.1
20260510034058 53 0.0 0.0 0.00 0.00 0.00 10 1014.1
20260510033058 53 0.0 0.0 0.00 0.00 0.00 10 1014.3
20260510032058 53 0.0 0.0 0.00 0.00 0.00 10 1014.4
20260510031058 52 0.0 0.0 0.00 0.00 0.00 10 1014.5
20260510030058 52 0.0 0.0 0.00 0.00 0.00 10 1014.6
20260510024058 53 0.0 0.0 0.00 0.00 0.00 10 1014.3
20260510023058 54 0.0 0.0 0.00 0.00 0.00 10 1014.2
20260510022058 53 0.0 0.0 0.00 0.00 0.00 10 1014.2
20260510021058 54 0.0 0.0 0.00 0.00 0.00 10 1014.2
20260510020058 54 0.0 0.0 0.00 0.00 0.00 10 1014.1
20260510015058 54 0.0 0.0 0.00 0.00 0.00 10 1014.2
20260510014058 54 0.0 0.0 0.00 0.00 0.00 10 1014.1
20260510012058 55 0.0 0.0 0.00 0.00 0.00 10 1014.1
20260510011058 55 0.0 0.0 0.00 0.00 0.00 10 1014.0
20260510010058 55 0.0 0.0 0.00 0.00 0.00 10 1014.0
20260510005058 55 0.0 0.0 0.00 0.00 0.00 10 1014.1
20260510004058 55 0.0 0.0 0.00 0.00 0.00 10 1014.3
20260510002058 55 0.0 0.0 0.00 0.00 0.00 10 1014.4
20260510001058 56 0.0 0.0 0.00 0.00 0.00 10 1014.4
20260510000058 56 0.0 0.0 0.00 0.00 0.00 10 1014.3
20260509235058 56 0.0 0.0 0.00 0.00 0.00 10 1014.5
20260509234058 55 0.0 0.0 0.00 0.00 0.00 10 1014.6
20260509233058 55 0.0 0.0 0.00 0.00 0.00 10 1014.6
20260509232058 55 0.0 0.0 0.00 0.00 0.00 10 1014.7
20260509231058 56 0.0 0.0 0.00 0.00 0.00 10 1014.5
20260509230058 56 0.0 0.0 0.00 0.00 0.00 10 1014.3
20260509225058 57 0.0 0.0 0.00 0.00 0.00 10 1014.4
20260509224058 58 0.0 0.0 0.00 0.00 0.00 10 1014.1
20260509223058 58 0.0 0.0 0.00 0.00 0.00 10 1014.0
20260509222058 57 0.0 0.0 0.00 0.00 0.00 10 1013.9
20260509221058 56 0.0 0.0 0.00 0.00 0.00 10 1014.2
20260509220058 57 0.0 0.0 0.00 0.00 0.00 10 1013.9
20260509215058 56 0.0 0.0 0.00 0.00 0.00 10 1013.9
20260509214059 56 0.0 0.0 0.00 0.00 0.00 10 1013.8
20260509212058 56 0.0 0.0 0.00 0.00 0.00 10 1013.7
20260509211058 57 0.0 0.0 0.00 0.00 0.00 10 1013.6
20260509210058 58 0.0 0.0 0.00 0.00 0.00 10 1013.2
20260509205058 58 0.0 0.0 0.00 0.00 0.00 10 1013.2
20260509204058 58 0.0 0.0 0.00 0.00 0.00 10 1013.1
20260509203058 58 0.0 0.0 0.00 0.00 0.00 10 1013.0
20260509202058 59 0.0 0.0 0.00 0.00 0.00 10 1012.7
20260509201058 59 0.0 0.0 0.00 0.00 0.00 10 1012.4
20260509200058 60 0.0 0.0 0.00 0.00 0.00 10 1012.3
20260509195057 60 0.0 0.0 0.00 0.00 0.00 10 1012.2
20260509194057 60 0.0 0.0 0.00 0.00 0.00 10 1012.0
20260509193058 60 0.0 0.0 0.00 0.00 0.00 10 1011.7
20260509192058 59 0.0 0.0 0.00 0.00 0.00 10 1011.8
20260509191058 59 0.0 0.0 0.00 0.00 0.00 10 1011.6
20260509185057 62 0.0 0.0 0.00 0.00 0.00 10 1010.7
20260509184057 62 0.0 0.0 0.00 0.00 0.00 99 1010.4
20260509182057 62 0.0 0.0 0.00 0.00 0.00 10 1010.3
20260509181058 62 0.0 0.0 0.00 0.00 0.00 98 1010.0
20260509180058 62 0.0 0.0 0.00 0.00 0.00 97 1010.0
20260509175057 60 0.0 0.0 0.00 0.00 0.00 10 1010.2
20260509174058 59 0.0 0.0 0.00 0.00 0.00 10 1010.3